Theta_e
292 289 287 290 289 288 287 285 285 288 292 290 289 289 292 292 290 290 290 290 291 292 293 292 293 297 298 298 298 298 299 300 300 298 299 298 294 294 294 294 295 295 293 291
290 287 292 292 291 289 287 285 286 289 291 290 289 289 291 290 291 293 293 293 293 293 289 291 292 296 297 298 298 298 298 299 300 302 296 294 293 290 291 291 291 291 290 289
288 292 294 293 290 289 287 286 286 288 288 287 286 285 288 293 292 293 294 296 295 294 292 291 291 295 296 297 297 298 298 300 301 295 292 290 290 290 289 289 288 288 287 287
290 293 293 290 289 291 286 291 290 288 286 282 286 281 286 289 291 292 295 294 295 294 292 292 292 294 296 298 298 299 298 297 293 293 292 292 289 287 288 288 287 286 285 285
289 290 290 289 290 292 289 291 289 287 285 282 283 281 285 287 289 293 295 296 296 293 293 291 292 295 297 298 298 298 298 293 293 293 293 292 290 285 285 286 285 282 282 283
289 292 293 292 292 293 293 290 288 286 284 279 285 284 283 287 291 292 296 297 294 292 291 291 293 294 296 297 297 297 295 292 292 292 292 290 287 285 283 282 282 281 281 281
288 289 290 293 290 291 290 288 280 278 276 279 283 281 289 290 292 294 296 295 292 290 288 288 289 293 294 294 296 296 294 291 292 292 290 288 287 286 284 282 282 281 280 279
285 282 290 292 292 290 288 287 281 275 275 278 282 280 286 291 294 293 294 293 291 288 288 288 290 293 294 294 294 295 293 291 290 290 289 288 287 286 284 283 282 282 281 280
284 284 289 290 292 294 287 285 290 283 271 275 281 284 289 291 291 291 292 291 289 289 287 287 289 292 293 293 293 294 292 290 289 289 287 286 286 285 283 281 281 280 279 280
290 283 287 288 292 290 289 292 284 282 273 271 279 281 285 289 290 294 293 293 289 288 286 287 289 291 293 293 292 291 290 289 287 287 287 285 284 283 282 281 280 279 279 279
291 288 283 287 286 286 286 285 285 285 282 277 274 282 288 292 292 292 293 292 291 288 286 286 287 288 289 289 287 286 286 286 285 285 285 283 282 282 282 281 280 279 279 279
292 290 281 284 287 287 287 286 286 280 278 279 279 285 289 291 292 292 293 293 289 288 286 286 286 286 286 286 285 285 285 285 285 284 283 282 282 281 281 280 279 279 279 279
293 287 277 281 285 285 284 286 289 286 281 281 278 285 288 287 288 291 292 291 289 287 285 284 283 284 284 285 285 285 285 284 284 283 283 281 281 281 280 280 279 280 279 279
297 290 284 283 284 286 283 285 287 289 283 284 285 289 287 289 289 291 291 291 289 287 285 284 283 284 284 285 285 285 284 284 282 282 282 281 281 281 281 280 280 279 279 279
295 286 287 290 289 287 285 285 287 287 288 285 289 289 293 294 291 293 292 291 288 287 285 285 284 284 284 284 284 284 284 283 283 282 282 282 282 282 281 280 280 280 279 279
294 286 289 287 290 287 286 286 288 288 290 290 290 290 294 294 292 291 293 291 289 288 287 287 286 285 284 285 284 284 284 283 283 282 282 282 282 281 281 280 279 279 279 278
291 288 286 284 287 287 283 288 289 288 291 290 286 292 294 295 295 296 294 291 290 291 290 288 286 286 286 285 285 284 284 283 282 282 282 282 282 281 281 280 279 279 278 278
289 289 287 285 285 279 290 294 294 292 293 293 293 295 295 295 296 294 293 293 292 292 291 289 288 287 287 286 285 285 284 282 282 282 281 281 281 281 280 280 279 279 278 277
296 291 287 284 284 287 289 289 289 288 290 296 294 294 296 295 289 294 293 294 295 293 294 293 292 289 287 285 285 283 282 282 282 281 282 282 282 281 280 280 279 279 278 277
294 295 288 284 282 280 289 290 291 293 287 296 296 296 296 294 289 296 294 291 292 293 291 289 287 285 285 284 284 282 281 281 281 282 282 282 282 282 280 280 280 280 279 279
286 288 286 285 284 285 285 281 287 285 286 282 289 293 290 292 295 289 288 289 287 287 286 285 285 285 283 283 282 281 281 281 283 283 283 282 282 282 282 281 281 280 279 278
285 285 285 286 283 281 282 283 286 288 281 281 283 285 286 288 288 285 285 285 284 284 284 283 283 281 280 281 282 281 281 282 282 283 282 282 283 283 283 283 281 280 279 277
282 286 285 287 287 289 286 284 285 284 283 283 284 285 286 285 284 283 283 282 283 283 283 282 282 280 280 281 283 282 281 283 283 283 283 283 283 283 282 281 278 276 276 275
282 284 282 286 286 287 287 285 285 284 284 284 285 284 283 283 282 281 282 281 281 277 278 277 280 278 277 279 281 282 280 280 281 281 279 277 278 275 276 277 276 275 274 274
282 284 284 284 284 284 287 285 285 284 283 282 283 283 282 282 281 281 279 277 277 276 276 277 279 278 275 276 275 276 276 278 277 275 273 274 274 274 272 272 273 273 269 273
282 282 284 284 285 287 288 286 286 283 282 282 283 281 280 281 281 279 278 278 276 277 275 276 275 276 273 273 272 272 272 275 275 272 272 272 272 271 270 269 267 275 274 278
Wind_Speed
3 4 9 14 9 3 5 4 5 4 3 4 8 11 13 8 7 10 10 12 14 18 8 8 9 8 8 7 8 8 8 8 7 5 5 4 4 4 4 5 5 8 7 6
4 8 10 5 4 4 2 3 6 6 4 6 7 13 12 5 9 13 16 16 17 13 9 11 11 9 9 10 9 9 8 10 7 5 4 3 4 4 4 4 5 7 6 6
9 6 5 8 5 6 6 7 6 8 3 3 5 9 9 11 7 8 13 17 13 20 18 14 14 15 11 12 12 12 11 11 8 8 8 7 7 4 3 3 4 4 6 6
7 4 5 5 6 9 7 9 7 5 2 5 3 9 5 6 11 10 17 14 21 17 10 13 17 15 16 14 11 11 11 8 8 11 8 14 6 6 3 3 4 5 6 6
10 8 7 7 8 9 8 5 7 3 3 3 5 4 4 1 8 15 16 17 18 12 17 19 21 21 16 12 13 11 11 9 10 11 11 9 9 4 5 6 9 6 5 6
5 2 7 7 2 7 7 6 6 5 3 4 9 9 6 7 10 7 15 18 10 10 12 11 11 10 12 11 12 12 14 12 12 12 11 11 13 12 9 8 7 5 4 4
2 5 3 4 6 3 4 7 3 5 1 12 3 6 18 6 10 13 15 13 5 5 8 9 12 14 14 16 14 13 15 12 13 13 12 12 12 16 16 14 10 10 6 4
10 10 12 8 10 9 8 10 9 9 6 7 1 9 9 11 11 9 10 8 3 6 8 12 16 16 16 16 15 15 16 14 13 13 12 11 13 10 9 10 10 8 7 7
7 8 1 2 4 11 6 9 5 2 2 2 7 9 8 11 13 10 14 7 6 9 8 8 9 13 15 16 18 18 16 13 14 13 11 11 12 12 11 9 8 7 6 7
5 4 0 1 3 2 7 8 3 1 3 6 6 7 9 7 11 16 11 11 7 7 7 8 9 11 11 13 12 11 12 13 13 12 12 11 12 11 10 11 11 10 8 9
3 4 2 3 8 12 4 6 3 5 6 6 3 10 10 14 11 10 12 6 8 9 8 8 8 7 10 9 10 11 11 11 11 12 11 11 11 10 11 11 9 10 10 11
10 4 6 10 2 2 4 4 7 6 6 5 2 18 4 8 8 8 10 8 3 6 8 8 8 10 10 11 10 12 12 12 11 11 12 12 11 11 11 10 10 10 11 9
9 5 2 7 3 4 4 5 7 5 4 14 6 17 3 0 4 7 9 4 5 6 8 8 8 10 11 11 12 12 12 12 11 12 12 11 12 12 13 11 11 11 10 9
5 5 10 17 3 7 7 9 11 16 9 13 19 23 4 6 8 7 9 8 6 7 8 8 9 12 13 13 14 13 12 12 12 13 13 14 14 14 13 11 11 11 10 11
11 9 6 16 10 5 8 9 17 21 32 12 34 20 25 15 10 11 8 6 6 8 10 12 13 13 13 13 13 13 13 14 15 15 14 15 13 12 11 11 11 10 10 9
10 7 11 27 22 10 14 10 23 28 29 24 32 30 4 5 4 4 12 10 10 9 11 13 13 13 16 17 16 15 16 16 15 15 14 13 13 12 12 11 11 11 10 8
12 7 7 17 8 11 8 33 20 12 21 23 24 41 7 17 16 19 15 10 11 14 15 13 17 17 16 18 17 19 16 14 16 15 13 13 14 14 12 11 11 11 11 9
6 13 7 12 4 13 23 14 19 27 26 20 24 34 19 14 15 11 6 7 14 14 10 10 12 13 16 14 15 13 14 15 15 14 14 14 14 12 12 12 12 10 9 10
12 12 9 9 15 15 15 13 13 13 28 28 30 30 25 16 5 26 11 14 15 12 15 15 14 11 12 15 15 15 13 14 15 15 15 15 15 14 14 13 12 9 8 6
20 19 10 4 8 13 25 9 8 7 16 21 18 27 27 7 10 23 4 5 10 11 5 6 7 8 12 12 14 15 14 15 16 15 14 14 15 15 14 13 12 9 8 10
9 14 22 18 14 6 7 6 2 11 11 1 6 14 6 11 11 2 6 5 3 2 3 6 8 11 10 12 14 13 13 15 13 12 12 12 12 14 13 12 8 9 10 8
10 9 8 9 13 17 3 3 12 5 3 3 2 2 4 6 7 5 4 5 2 2 4 6 7 7 6 8 11 11 11 7 8 10 10 10 10 8 8 12 10 12 11 11
5 8 6 8 5 7 6 7 5 4 0 2 2 4 4 4 3 2 2 2 3 4 5 5 8 8 6 6 8 10 6 10 11 10 10 10 10 10 11 12 10 8 9 8
4 2 3 2 6 8 7 6 6 5 3 3 2 1 3 1 1 1 2 3 4 3 4 4 9 8 6 5 6 7 9 9 10 10 9 8 9 7 7 5 7 7 8 7
4 7 6 5 4 1 6 6 6 9 9 2 3 2 1 3 3 2 2 2 2 3 3 3 8 7 6 6 6 5 7 9 8 7 7 7 5 7 6 3 4 4 1 5
5 7 6 6 4 4 3 1 6 7 6 7 6 2 1 0 3 4 4 2 2 4 2 6 6 10 6 7 7 6 4 6 8 6 5 5 5 4 5 5 4 4 5 8
Wind_Direction
11 114 206 205 200 147 146 185 214 238 227 172 226 253 260 219 218 239 237 230 231 230 220 195 194 186 176 174 167 170 160 155 147 137 123 115 107 95 74 69 79 96 95 90
46 235 228 152 181 193 164 210 252 280 247 182 263 255 258 201 229 215 223 230 230 229 202 196 192 187 182 178 178 171 172 167 171 162 106 112 124 73 82 87 82 91 100 100
175 218 144 157 162 176 226 198 218 225 349 243 329 279 241 250 226 242 237 235 234 222 215 198 190 193 182 187 182 177 176 176 167 129 114 97 89 92 86 84 95 74 93 97
237 240 149 171 197 159 234 204 190 217 121 243 148 283 263 247 254 232 248 230 237 227 205 194 192 191 193 191 172 175 175 169 150 151 143 156 147 154 146 128 118 102 93 99
231 181 175 191 200 170 225 136 170 153 164 19 207 265 252 38 261 255 251 245 242 214 198 197 196 196 189 171 176 173 168 160 161 162 161 157 143 108 125 122 123 105 95 97
233 178 172 201 98 155 145 80 57 58 103 256 219 186 214 196 221 241 248 252 235 215 204 201 194 173 175 169 172 171 171 171 166 165 163 161 150 141 139 137 133 134 117 108
141 221 191 150 100 69 124 94 313 327 13 241 45 176 254 282 253 229 252 258 255 210 170 171 172 179 174 178 176 173 174 174 171 167 163 159 157 156 158 155 155 150 145 140
195 254 168 188 190 165 189 164 172 208 203 268 83 234 250 228 255 262 260 268 233 169 185 189 188 184 181 178 174 176 178 173 172 167 165 162 159 159 162 158 155 154 155 151
172 256 244 125 146 154 191 209 200 29 109 3 225 281 286 256 267 273 256 249 214 219 206 191 182 187 180 180 180 180 178 172 174 170 162 162 161 160 162 150 151 155 140 145
223 276 7 203 114 37 169 159 89 3 228 251 267 262 227 247 242 249 267 257 209 226 200 186 185 186 182 180 176 174 179 176 173 165 166 165 163 158 153 156 160 159 148 147
162 179 269 128 209 170 149 202 187 142 164 191 285 252 216 216 206 220 243 254 228 213 198 183 184 176 175 172 174 170 169 163 169 164 163 162 161 155 156 163 162 163 156 157
209 189 203 201 253 210 208 236 158 144 230 247 179 259 178 205 205 203 252 259 235 196 186 182 176 171 172 174 173 179 175 172 172 164 163 166 160 156 160 165 167 164 165 163
171 219 334 330 22 353 212 194 196 109 75 231 153 263 18 143 269 244 235 246 211 184 171 173 168 182 182 183 185 185 181 177 166 163 163 161 164 165 171 169 167 166 161 164
173 191 199 232 196 147 192 194 199 202 219 231 235 254 261 271 252 268 253 254 224 186 187 190 190 192 191 191 188 185 182 176 164 165 167 171 173 173 172 167 167 168 166 165
145 235 244 259 258 206 195 196 197 209 228 199 252 244 249 232 221 235 237 223 191 203 197 202 199 197 193 192 190 189 184 174 169 173 176 179 170 167 162 161 166 165 169 170
164 237 227 258 248 237 245 219 217 215 230 235 257 263 105 257 234 247 241 231 220 216 220 213 206 194 198 194 193 187 186 181 173 177 180 168 164 160 163 161 165 163 165 156
156 188 182 253 240 223 249 237 228 216 224 216 237 248 218 260 240 244 247 216 222 224 222 208 203 202 200 200 188 192 182 169 176 173 169 167 163 163 164 161 163 172 173 159
174 199 187 247 173 226 240 257 232 232 238 229 254 259 239 250 266 246 225 214 233 229 226 217 204 202 201 190 187 176 173 174 175 172 163 163 163 165 162 164 173 168 164 169
215 207 227 228 239 255 287 249 189 185 246 233 232 251 255 252 332 270 189 221 237 218 222 218 207 197 176 178 172 163 166 170 170 175 172 168 169 167 167 171 169 160 153 167
213 221 218 188 235 234 244 265 170 116 254 246 217 242 250 212 244 268 180 218 242 241 247 203 164 146 160 168 161 158 165 168 180 177 172 168 172 173 173 168 163 161 176 192
191 208 222 225 238 258 237 204 173 167 239 298 193 230 263 211 233 329 325 306 326 294 213 143 151 161 155 147 147 156 160 186 179 171 164 166 169 169 166 157 161 170 186 181
181 181 212 230 227 242 92 61 186 241 325 145 170 173 221 256 291 311 318 321 357 106 108 110 105 107 118 128 146 154 169 146 135 141 145 152 154 151 159 171 178 184 184 188
213 193 186 197 197 191 184 191 302 325 154 284 255 194 218 236 255 313 294 50 59 112 101 84 109 102 85 117 132 129 124 126 131 139 151 163 170 177 178 181 173 165 173 185
248 172 205 125 226 238 203 159 174 178 261 281 275 33 167 284 192 184 156 122 98 57 98 106 116 117 107 100 104 129 145 142 146 155 156 149 156 145 150 157 166 169 177 185
189 139 181 265 257 308 271 264 205 179 160 182 313 318 270 211 198 147 122 93 101 95 70 102 125 115 109 100 96 114 131 136 131 127 135 145 146 154 141 111 162 167 113 166
190 189 184 220 226 188 219 294 191 178 177 176 175 188 214 201 150 126 128 121 107 114 91 100 97 114 115 103 93 89 87 119 126 120 135 147 141 132 134 135 93 109 146 174